Regional Weather Roundup
Issued by NWS New Orleans/Baton Rouge, LA

Home | Current Version | Previous Version | Graphics & Text | Print | Product List | Glossary On
Versions: 1 2 3 4 5 6 7 8 9 10 11 12 13 14 15 16 17 18 19 20 21 22 23 24 25 26 27 28 29 30 31 32 33 34 35 36 37 38 39 40 41 42 43 44 45 46 47 48 49 50
960
ASUS44 KLIX 240510
RWRLIX
NEW ORLEANS REGIONAL WEATHER ROUNDUP
NATIONAL WEATHER SERVICE NEW ORLEANS LA
1200 AM CDT THU APR 24 2014

NOTE: "FAIR" INDICATES FEW OR NO CLOUDS BELOW 12,000 FEET WITH NO
      SIGNIFICANT WEATHER AND/OR OBSTRUCTIONS TO VISIBILITY.
      SKY/WX - SKY CONDITION AND SIGNIFICANT WEATHER.
      TMP - AIR TEMPERATURE.     DP    - DEWPOINT TEMPERATURE.
      RH  - RELATIVE HUMIDITY.   PRES  - PRESSURE.
      HI  - HEAT INDEX.          WCI   - WIND CHILL INDEX.

*  THESE STATIONS ARE NOT NWS OR FAA STATIONS AND ARE NOT UNDER
   NWS QUALITY CONTROL.

LAZ038-040-048-061>063-065>067-069-240600-
SOUTHEAST LOUISIANA

CITY           SKY/WX    TMP DP  RH WIND       PRES   REMARKS
N.O. AUDUBON     N/A     71  67  87 MISG        N/A
N.O. INTL ARPT PTCLDY    67  64  90 S5        29.92F
N.O. LAKEFRONT CLEAR     71  65  81 SW5       29.92F
N.O. DOWNTOWN*   N/A     73  63  68 S5        29.93F
SLIDELL        CLEAR     63  59  87 CALM      29.92F
BATON ROUGE    CLEAR     68  61  78 S5        29.92S
BOOTHVILLE     CLEAR     69  67  93 S6        29.94S
BELLE CHASSE   CLEAR     64  61  90 CALM      29.92F
BOGALUSA*        N/A     62  58  86 CALM      29.93F
GALLIANO*      CLEAR     64  61  89 SE3       29.92F
NEW ROADS*     MOCLDY    68  62  79 S3        29.93R
GONZALES*        N/A     64  64  99 CALM      29.92S
HAMMOND*       CLEAR     68  63  83 CALM      29.93F
HOUMA*           N/A     63  61  93 S3        29.92F FOG
PORT FOURCHON* CLEAR     72  66  83 S7        29.94F

$$

MSZ070-080>082-240600-
SOUTHERN MISSISSIPPI

CITY           SKY/WX    TMP DP  RH WIND       PRES   REMARKS
MCCOMB         CLEAR     59  53  80 VRB3      29.92S
GULFPORT       PTCLDY    72  66  81 S3        29.92S
BILOXI         MOCLDY    70  69  96 SW6       29.93S
PASCAGOULA     CLEAR     63  62  97 CALM      29.93S FOG

$$

COASTAL OBSERVATIONS
LAKE AND NEARSHORE STATIONS

STATION/POSITION TIME  TEMP    WIND        PRES    WAVE
                       AIR SEA DIR/SP/G            HT/PER
                 (UTC) (F)     (DEG/KT/KT) (MB)    (FT/S)
PASCAGOULA       0500   71     210/  4/  6 1012.9
WAVELAND YACHT   0500   70 76  220/  3/  6 1012.6
GRAND ISLE       0500   71 72  210/  4/  5 1013.9
SOUTHWEST PASS   0500   67 60  190/  6/  7 1014.0
NEW CANAL        0500   71 73  200/  7/  9 1013.6
SHELL BEACH      0500   71 69  210/  5/  6 1013.2

OFFSHORE STATIONS

STATION/POSITION TIME  TEMP    WIND        PRES    WAVE
                       AIR SEA DIR/SP/G            HT/PER
                 (UTC) (F)     (DEG/KT/KT) (MB)    (FT/S)
64 S DAUPHIN ISL 0441   70 72  210/  8/  8 1014.2

$$




USA.gov is the U.S. government's official web portal to all federal, state and local government web resources and services.